Wind_Speed
9 7 5 2 4 5 3 3 3 2 4 5 9 9 9 11 3 6 14 24 22 21 23 23 24 26 24 23 24 23 23 22 21 21 20 20 19 18 18 17 17 16 16 16 16 15 16 14 16
12 9 2 2 5 4 2 5 8 5 10 9 13 11 9 6 5 11 14 22 24 23 21 23 24 24 21 21 21 21 20 19 19 19 18 17 17 15 15 15 14 15 16 15 14 15 16 15 17
11 3 2 3 3 3 4 2 8 12 10 4 4 7 4 4 7 6 23 26 24 24 22 22 22 21 20 20 20 19 19 18 19 18 16 16 14 13 14 14 14 13 14 14 13 12 14 13 14
3 2 2 4 3 2 5 7 10 8 6 7 10 7 5 5 3 13 28 27 27 22 21 21 21 19 18 19 19 19 17 16 17 16 15 13 12 12 13 12 12 11 12 13 14 11 10 9 9
2 2 4 3 2 3 3 6 4 10 6 8 4 5 4 6 21 29 28 26 27 24 23 22 21 20 19 19 18 19 19 17 15 14 13 12 12 10 10 9 9 10 9 10 10 9 7 7 5
2 2 4 1 3 5 3 7 15 18 16 14 11 8 4 19 21 22 26 27 24 24 23 20 18 19 19 21 18 17 16 17 13 13 13 12 11 10 9 8 7 6 6 6 5 5 4 4 3
3 4 2 2 3 3 4 1 7 8 10 8 9 5 5 12 17 25 26 26 22 23 20 19 18 19 16 16 18 16 14 15 14 11 12 11 11 9 7 7 6 4 2 3 2 2 2 2 1
4 3 3 1 3 3 7 3 4 4 7 14 10 5 6 13 21 24 22 22 21 20 17 19 19 20 17 15 16 16 15 15 14 12 12 10 8 7 6 6 4 2 1 1 3 4 4 4 2
2 4 2 4 5 4 10 5 5 6 10 6 3 11 17 24 22 21 19 18 18 17 18 19 20 19 18 16 12 12 13 12 9 10 9 7 7 5 4 5 3 1 2 3 5 7 7 8 7
4 3 7 7 6 9 9 3 6 5 10 8 16 20 24 24 22 20 17 14 19 18 19 19 19 17 14 11 9 9 10 8 6 5 4 2 3 2 3 4 3 3 4 5 6 7 9 9 11
6 6 6 7 7 14 9 8 4 12 4 6 22 20 20 22 20 19 17 17 19 18 18 20 21 15 9 9 6 7 7 6 4 2 3 2 2 2 2 2 2 3 4 5 5 7 8 9 9
5 6 11 9 11 12 6 8 8 2 4 14 14 17 19 16 18 18 18 18 20 19 19 19 20 13 9 9 5 4 3 3 2 2 2 3 3 3 3 3 4 5 5 6 7 8 9 10 11
2 5 6 15 11 10 14 9 5 7 13 13 14 17 16 16 18 18 17 17 20 23 22 22 20 15 12 12 7 4 3 3 4 5 5 7 9 8 7 6 4 3 4 7 8 11 13 15 14
3 6 12 11 13 13 12 13 4 7 14 15 15 13 12 14 18 18 18 18 23 28 27 24 22 18 14 14 12 8 9 8 8 8 9 10 11 10 10 9 8 8 7 7 9 11 13 14 14
15 15 9 6 7 7 18 2 6 15 15 15 14 12 12 14 19 21 23 22 28 32 32 30 27 22 19 19 18 14 12 10 11 13 12 14 15 15 13 11 11 10 8 6 8 13 12 14 14
8 6 6 6 7 8 4 3 8 15 15 15 14 12 12 13 21 22 25 25 27 28 31 33 31 27 24 22 21 18 15 14 14 12 12 13 15 16 18 12 8 5 5 7 11 14 15 14 13
6 7 3 6 14 6 2 4 12 16 14 13 13 13 13 11 14 19 22 26 28 29 31 33 32 29 26 23 22 20 18 17 16 17 18 19 16 11 14 13 8 5 8 7 13 26 19 18 18
5 3 1 10 16 6 6 5 17 18 17 16 14 13 13 13 16 22 23 26 27 28 27 30 32 31 27 25 22 21 19 19 19 17 18 14 12 10 11 13 12 11 6 5 21 25 24 19 20
1 4 7 13 7 6 7 7 19 20 14 15 15 15 15 17 22 24 28 27 28 29 30 33 35 34 30 26 24 22 21 20 19 19 19 16 11 10 13 15 10 10 9 15 18 23 24 21 18
4 4 11 6 9 7 6 4 17 20 22 19 19 17 17 14 13 21 25 26 31 34 35 35 35 34 32 30 28 25 21 19 21 20 20 19 16 17 19 17 17 14 14 13 14 16 19 20 14
2 5 11 8 6 5 9 3 8 10 6 9 16 16 15 17 16 16 25 29 32 33 37 39 39 37 33 29 25 23 21 21 22 21 17 17 19 19 18 16 14 10 13 13 14 17 19 20 18
5 7 12 14 15 7 3 4 7 11 15 14 14 15 17 18 16 17 24 29 33 37 43 44 39 36 33 30 28 27 25 24 24 22 21 23 21 18 15 14 15 14 14 16 16 15 18 19 22
10 4 4 10 7 7 3 3 7 11 15 20 18 19 18 18 18 18 26 33 37 35 34 37 36 34 32 30 31 29 28 26 24 23 20 22 20 21 16 16 17 18 18 20 18 18 19 20 23
5 1 7 6 5 1 9 7 4 12 27 25 17 18 21 19 19 19 29 29 31 30 27 24 26 33 32 31 29 30 29 28 26 23 21 21 21 16 15 18 20 23 23 25 20 21 24 24 23
5 5 3 3 4 5 4 3 12 19 22 25 26 23 22 19 18 19 19 26 27 22 23 26 36 38 37 36 37 34 31 28 26 26 22 22 17 9 6 6 8 10 22 26 24 24 23 21 20
5 7 6 5 4 5 5 5 7 9 19 23 22 24 18 18 18 19 21 30 19 25 30 32 37 30 33 38 37 33 27 24 26 24 21 21 20 17 19 17 16 24 24 22 20 22 23 22 22
4 2 4 8 2 3 4 7 7 7 2 10 14 13 17 18 18 19 21 19 25 29 33 35 32 33 42 36 32 24 24 26 18 20 21 25 24 13 17 21 23 23 22 22 25 28 31 26 25
6 7 3 3 2 4 5 4 6 3 4 7 9 11 14 13 11 9 10 22 26 30 34 33 34 38 32 35 28 27 27 24 16 21 14 21 22 16 15 16 16 20 24 29 34 38 32 29 27
1 2 7 6 5 6 1 6 6 2 5 10 9 10 9 10 8 9 12 22 28 29 30 33 33 30 29 29 28 27 26 26 28 30 17 17 20 21 22 20 23 27 28 33 32 33 30 26 26
2 5 7 5 4 1 4 5 3 5 3 7 7 4 4 8 10 11 14 21 22 24 25 26 26 27 26 26 24 25 27 31 30 25 26 24 24 21 25 30 29 27 27 23 21 21 23 26 28
Wind_Direction
174 146 119 81 59 59 16 347 116 160 53 29 73 89 83 37 51 127 123 133 131 121 123 117 114 110 109 110 113 112 112 110 110 112 114 118 119 118 119 119 119 117 115 114 112 113 114 117 114
159 134 96 76 77 74 4 320 84 95 135 127 80 81 53 64 53 104 117 136 133 127 129 126 123 118 112 112 114 117 112 111 111 112 112 114 115 114 113 116 119 120 116 116 115 116 114 117 114
150 138 70 75 103 143 149 191 122 144 158 120 98 36 55 95 78 109 138 140 136 131 134 129 132 125 116 115 115 117 117 116 114 112 114 117 119 116 116 117 120 117 118 115 111 113 116 119 122
158 2 24 67 79 36 156 147 125 115 82 62 116 73 73 47 88 132 143 138 134 132 131 133 129 124 118 114 111 111 111 110 112 113 115 110 109 114 117 114 118 116 118 121 118 118 115 113 117
312 39 47 76 37 56 108 169 102 107 80 82 71 97 66 67 123 137 143 143 137 133 134 131 132 129 121 117 118 119 118 112 110 112 114 111 109 113 115 116 114 113 112 111 114 119 122 123 108
43 118 51 294 114 97 42 83 97 97 102 102 92 99 70 115 123 139 150 143 136 134 132 133 139 128 127 121 115 111 112 109 111 119 112 109 114 117 118 113 114 108 100 96 94 106 119 120 125
120 70 122 314 99 87 118 137 115 118 105 79 138 92 98 124 133 149 150 142 139 142 140 141 136 127 126 122 120 114 111 109 108 104 105 112 112 109 112 130 126 118 78 54 44 46 96 124 108
100 90 88 359 205 121 159 106 154 73 68 129 142 141 139 135 138 140 139 148 149 149 146 144 140 140 134 122 111 110 108 104 100 97 88 90 92 106 123 138 138 142 243 333 338 333 333 331 327
335 71 176 146 198 165 143 139 32 76 126 44 34 118 124 136 137 140 145 155 161 164 158 158 156 149 136 126 112 103 98 101 99 91 85 85 85 91 83 76 73 32 345 341 342 330 327 321 319
92 120 216 188 152 138 129 124 112 111 112 98 105 112 132 140 144 146 159 164 171 173 172 170 164 155 145 139 126 113 118 121 106 90 91 84 87 78 40 34 32 8 13 357 1 345 335 328 326
183 195 177 153 135 125 133 99 97 121 107 151 142 144 147 148 152 160 174 178 179 177 177 179 173 171 164 160 137 124 137 134 122 109 104 122 161 254 291 315 337 322 324 332 337 337 338 328 322
159 227 154 136 150 134 112 105 131 130 155 148 148 148 151 154 162 170 175 186 190 188 188 186 189 196 196 189 165 158 173 150 169 178 220 273 274 277 286 327 304 323 328 332 328 329 321 322 308
142 179 130 134 135 112 129 133 119 96 127 143 147 155 162 165 168 180 186 189 195 198 196 195 200 208 214 212 218 233 277 285 295 275 285 283 286 282 283 282 289 287 323 336 327 317 311 297 298
45 103 120 122 131 134 121 129 96 149 141 149 160 167 169 172 174 174 186 192 199 203 203 200 205 213 221 224 232 262 285 300 296 288 287 288 283 279 270 296 299 310 320 333 331 319 301 296 292
108 107 61 119 144 113 123 113 148 158 160 162 172 177 177 185 179 186 190 192 199 205 207 208 210 216 220 227 231 257 276 292 289 288 293 291 289 292 313 314 306 313 300 312 291 283 293 303 297
90 22 118 236 168 160 83 223 162 168 167 175 180 187 187 190 191 189 193 196 200 203 205 208 212 218 219 225 230 246 265 276 285 296 311 301 293 267 263 278 289 318 298 281 274 294 280 292 301
358 164 162 189 208 156 208 170 174 175 176 182 189 191 197 193 196 196 192 196 198 202 204 207 213 220 222 228 238 252 260 271 280 285 293 295 291 277 262 259 259 232 261 293 280 298 291 298 309
147 128 266 197 200 171 171 206 162 181 184 189 193 193 198 198 201 195 193 197 201 202 202 205 210 217 223 231 240 249 248 253 266 279 282 285 283 278 273 262 278 270 260 235 259 281 276 290 317
296 181 185 211 224 154 184 167 174 183 192 189 197 194 200 201 205 193 196 195 200 202 202 203 206 213 219 224 226 233 244 257 268 281 291 286 268 258 267 258 256 259 233 239 260 262 267 284 300
242 294 281 278 184 128 149 219 181 186 195 193 195 199 201 203 201 198 193 194 201 203 206 205 208 210 215 220 223 232 246 260 265 272 279 284 280 282 280 272 274 259 231 261 264 265 274 281 300
265 213 269 203 134 56 115 13 197 217 226 203 205 204 202 201 199 204 199 194 199 201 207 209 210 212 213 217 224 234 242 256 265 264 271 290 301 304 293 293 299 273 263 263 277 274 260 274 299
282 211 241 152 153 181 144 233 215 206 218 220 206 201 204 204 201 201 204 203 202 203 208 209 212 215 218 220 222 226 235 245 260 275 287 298 306 314 308 300 306 308 298 293 293 285 277 275 282
232 317 189 160 122 100 234 99 277 166 218 223 210 204 205 205 198 201 205 205 206 204 205 209 213 216 220 226 233 238 243 246 261 274 289 298 309 313 300 299 298 298 294 287 286 285 279 276 279
242 272 58 49 92 133 210 162 247 184 216 223 214 207 207 202 203 204 207 206 210 207 202 200 208 217 219 226 229 236 244 254 268 278 286 292 301 307 301 304 293 291 296 291 289 287 285 283 286
95 62 8 19 11 218 172 112 241 215 214 211 204 207 207 201 198 203 203 204 205 190 189 195 207 209 213 211 217 221 238 247 262 273 283 298 296 301 304 342 338 302 286 293 288 282 283 287 293
180 157 150 175 193 258 182 233 259 216 222 214 204 204 199 198 202 202 202 207 180 183 188 196 206 205 217 219 219 222 224 243 257 274 275 280 288 295 297 279 290 279 297 295 284 285 286 290 289
203 137 174 104 32 50 282 293 319 341 98 185 196 193 200 202 202 203 202 184 179 183 192 199 205 205 220 220 217 213 223 222 222 265 272 272 266 280 292 290 287 286 278 285 288 289 287 288 292
163 161 82 8 140 274 293 298 240 333 127 150 164 196 209 207 199 197 149 166 174 182 194 198 206 213 213 217 207 210 213 218 216 241 263 280 273 272 288 286 287 291 286 284 285 288 285 292 290
79 124 52 113 115 165 220 268 218 225 223 167 179 207 202 193 167 156 160 154 164 173 185 195 204 204 204 208 208 208 209 209 224 240 248 267 282 283 281 291 298 289 287 295 295 291 292 288 294
154 197 144 130 221 130 159 272 325 118 182 151 122 126 121 157 156 146 128 126 133 147 166 175 180 189 193 194 208 222 221 221 239 239 265 260 287 299 296 294 294 293 289 297 296 297 295 298 305
Height
758 761 761 764 786 790 805 795 779 786 788 779 773 776 786 787 793 812 801 803 805 805 808 809 811 812 815 816 817 818 819 820 822 823 824 826 827 827 828 829 830 832 833 833 834 836 836 837 838
758 761 764 767 802 817 813 789 791 782 780 776 775 780 785 797 791 797 803 806 807 809 812 813 814 815 818 819 820 822 823 823 825 826 828 830 831 831 832 832 832 833 834 836 838 839 840 841 841
760 762 767 779 799 817 813 789 783 780 773 772 782 781 786 800 796 800 805 808 809 810 814 815 816 818 820 822 823 824 826 826 827 829 831 833 834 834 836 837 836 837 836 837 840 842 843 844 844
762 763 766 793 797 788 789 785 780 781 777 776 781 793 793 796 798 803 807 810 812 815 817 818 819 821 822 824 826 827 829 830 831 831 834 836 838 839 840 840 840 841 841 841 841 844 845 846 846
764 765 792 798 794 786 782 779 779 787 785 784 782 799 798 801 802 807 810 813 815 817 819 820 820 823 826 826 829 830 831 832 835 836 837 838 839 843 843 845 845 845 845 845 845 846 846 847 848
772 771 805 812 794 786 784 782 782 787 789 790 792 795 803 805 807 811 814 816 819 819 822 823 826 827 830 830 832 834 834 833 837 838 839 841 842 844 846 847 848 849 848 849 849 848 849 849 849
772 783 797 797 797 791 788 781 787 787 788 793 788 801 806 809 812 814 817 820 821 823 824 827 830 831 834 835 835 837 838 838 840 842 842 843 844 845 848 849 849 851 851 851 851 851 851 851 851
764 778 790 791 799 799 785 784 783 785 794 788 788 806 808 810 814 817 821 823 825 826 829 830 832 834 837 839 840 840 841 842 844 845 846 846 847 848 849 849 849 850 851 851 852 852 851 852 852
757 794 803 798 796 789 781 789 784 784 791 793 790 795 805 812 817 821 825 827 829 831 832 834 836 838 840 841 843 844 845 846 848 848 848 849 850 850 852 850 851 851 852 853 853 853 853 852 850
776 799 789 771 774 781 784 787 789 796 800 802 801 805 810 815 820 824 828 830 832 833 835 837 840 841 842 844 845 846 846 849 849 850 849 850 850 851 852 852 852 852 853 853 853 853 852 852 851
774 787 769 768 770 775 785 789 788 800 808 803 802 806 812 817 822 825 829 832 834 837 838 840 841 843 845 846 847 847 848 849 849 850 849 850 851 851 852 852 853 853 853 852 852 852 852 851 850
775 760 754 766 771 775 785 787 797 794 798 799 804 808 813 818 822 826 830 833 836 839 841 842 844 845 847 848 849 850 850 850 850 850 850 851 851 851 852 853 854 853 852 852 853 852 851 850 849
762 760 760 762 771 776 779 792 793 798 797 802 807 812 815 820 824 828 830 834 837 839 841 843 845 846 848 849 851 851 851 851 852 852 852 852 852 852 853 854 853 852 852 852 851 851 850 848 847
752 757 768 771 775 779 786 793 792 801 800 805 808 813 817 819 822 827 830 832 835 837 839 842 843 846 848 851 851 851 852 853 852 852 852 853 853 853 853 854 854 854 853 851 850 848 846 844 844
757 781 781 782 780 786 786 804 806 797 800 806 808 812 816 818 822 823 825 829 831 834 837 839 841 844 847 848 849 850 851 851 852 850 851 851 853 854 855 854 854 853 852 850 847 842 842 842 842
778 790 813 790 786 786 787 820 801 798 803 808 809 811 813 816 816 820 822 826 829 832 834 837 839 841 843 845 847 848 849 848 849 849 848 848 849 849 850 851 850 850 849 846 840 835 836 838 839
795 816 805 802 782 787 794 813 798 799 803 809 809 809 810 814 817 818 821 823 825 828 832 836 839 841 844 846 847 848 848 847 846 845 845 845 846 846 848 848 849 848 847 848 845 835 837 837 835
805 805 800 801 784 785 800 804 796 798 801 804 806 808 809 810 810 813 818 821 824 827 831 835 836 838 841 844 845 845 843 843 843 842 842 842 842 843 844 847 847 848 849 847 839 839 838 837 835
778 789 797 785 773 791 799 800 793 797 801 803 803 804 805 805 804 810 813 818 821 824 826 827 829 832 836 838 840 841 841 842 842 841 842 842 842 843 843 842 843 844 843 839 840 839 836 833 833
785 792 789 778 767 783 798 803 793 790 789 791 794 797 799 803 806 807 810 815 816 818 820 825 827 829 832 835 836 839 840 841 839 838 837 839 840 841 841 841 841 841 841 840 839 838 837 835 834
781 790 784 788 778 782 793 813 808 795 792 791 790 791 795 798 802 804 805 808 810 814 816 819 821 824 828 833 838 839 840 839 837 837 837 838 840 840 840 841 841 842 842 841 840 839 837 837 833
792 762 765 775 783 814 788 840 814 799 797 790 788 790 789 790 794 797 800 802 802 805 806 811 818 825 830 833 834 833 837 838 837 838 839 838 837 838 838 839 841 841 842 841 840 839 838 837 834
775 750 759 762 792 801 804 824 812 796 802 788 781 781 782 782 786 789 790 795 796 801 808 814 823 828 831 834 837 839 838 837 836 838 839 839 836 834 835 836 837 839 841 840 840 838 837 837 833
744 756 773 790 803 827 803 812 812 799 778 769 771 773 773 775 778 781 784 791 794 800 810 819 824 824 826 830 834 837 836 838 837 836 838 838 836 833 833 833 834 838 840 841 838 836 835 832 830
756 783 823 821 829 828 799 810 790 764 750 749 753 758 760 765 772 775 778 783 788 804 810 812 808 809 813 814 813 816 825 828 832 832 832 833 833 832 830 830 831 831 834 835 835 833 830 830 827
762 774 818 826 840 820 805 804 774 748 735 731 736 740 750 758 762 767 771 773 791 798 801 801 801 813 820 817 813 816 816 823 825 828 826 827 828 828 827 825 822 827 829 830 828 828 827 826 825
759 778 766 812 818 822 808 780 751 743 739 737 742 747 749 750 754 758 762 777 784 790 793 797 804 807 801 811 812 816 818 817 818 828 827 825 824 824 823 823 823 824 824 825 825 824 824 822 819
745 750 787 806 815 822 814 800 794 758 750 746 748 749 745 745 751 756 765 771 779 784 788 794 797 798 802 804 807 809 812 816 815 820 823 825 824 821 819 821 821 822 821 821 820 819 819 816 814
757 766 784 791 808 827 829 810 763 753 753 748 745 742 742 744 748 754 758 767 774 779 783 787 791 794 798 803 805 807 809 811 812 813 815 818 820 819 817 819 819 817 815 815 814 814 813 810 807
736 751 763 799 803 815 815 800 748 748 747 745 746 744 742 742 745 750 759 767 773 777 780 784 788 792 797 801 803 804 806 808 808 809 812 813 815 815 815 815 815 811 810 809 810 808 807 805 799